Location: Cucq
(50.4773°N, 1.6202°E)
Time: 16:35:47
(UTC+00:00)

CZ-4C R/B - Pass Details

Date: 07 August 2020
Orbit: 465 x 635 km, 98.0° (Epoch: 18 September)

Event Time Altitude Azimuth Distance (km) Brightness Sun altitude
Exits shadow 01:04:13 34° 101° (ESE) 798 4.1 -21.7°
Maximum altitude 01:04:59 39° 69° (ENE) 723 4.2 -21.6°
Drops below altitude 10° 01:08:18 10° 360° (N) 1,663 6.8 -21.5°
Sets 01:10:28 0° 352° (N) 2,566 7.8 -21.4°
